Weather History for KDGW - April, 2013

Change the Weather History Date:

Saturday, April 20, 2013

  Actual Average Record
Temperature  
Mean Temperature 46 °F 45 °F  
Max Temperature 55 °F 59 °F 72 °F (2012)
Min Temperature 36 °F 31 °F 20 °F (2011)
Degree Days  
Heating Degree Days 19 20  
Month to date heating degree days 601 453  
Since 1 July heating degree days 6545 6771  
Cooling Degree Days 0 0  
Month to date cooling degree days 0 0  
Year to date cooling degree days 0 0  
Moisture  
Dew Point 32 °F    
Average Humidity 65    
Maximum Humidity 85    
Minimum Humidity 44    
Precipitation  
Precipitation 0.05 in 0.06 in 0.38 in (2005)
Month to date precipitation 0.40 0.89  
Year to date precipitation 1.37 2.53  
Sea Level Pressure  
Sea Level Pressure 29.88 in    
Wind  
Wind Speed 7 mph (SW)    
Max Wind Speed 18 mph    
Max Gust Speed 24 mph    
Visibility 10 miles    
Events Rain    
T = Trace of Precipitation, MM = Missing Value Source: NWS Daily Summary

Daily Weather History Graph

Daily Weather History Graph

Search for Another Location

Airport or City:

Trip Planner

Search our weather history database for the weather conditions in past years. The results will help you decide how hot, cold, wet, or windy it might be!

Date:

Astronomy

Apr. 20, 2013 Rise Set
Actual Time 6:11 AM MDT 7:49 PM MDT
Civil Twilight 5:41 AM MDT 8:19 PM MDT
Nautical Twilight 5:05 AM MDT 8:56 PM MDT
Astronomical Twilight 4:26 AM MDT 9:35 PM MDT
Moon 2:29 PM MDT (4/20) 3:10 AM MDT (4/20)
Length of Visible Light 14h 38m
Length of Day
13h 38m
Waxing Gibbous, 71% of the Moon is Illuminated
Apr 20
Waxing Gibbous
Apr 25
Full
May 2
Last Quarter
May 9
New
May 17
First Quarter

Hourly Weather History & Observations

Time (MDT) Temp. Windchill Dew Point Humidity Pressure Visibility Wind Dir Wind Speed Gust Speed Precip Events Conditions
12:53 AM 42.1 °F - 30.0 °F 62% 29.84 in 10.0 mi Calm Calm - N/A   Overcast
1:53 AM 43.0 °F 35.7 °F 30.0 °F 60% 29.82 in 10.0 mi West 15.0 mph 20.7 mph N/A   Overcast
2:53 AM 43.0 °F 41.3 °F 30.0 °F 60% 29.81 in 10.0 mi Variable 3.5 mph - N/A   Overcast
3:53 AM 39.9 °F 36.7 °F 30.0 °F 68% 29.83 in 10.0 mi SSW 4.6 mph - N/A   Overcast
4:53 AM 37.9 °F - 30.0 °F 73% 29.85 in 10.0 mi Calm Calm - N/A   Overcast
5:53 AM 36.0 °F 33.3 °F 30.0 °F 79% 29.87 in 10.0 mi NNW 3.5 mph - N/A   Mostly Cloudy
6:53 AM 37.9 °F - 32.0 °F 79% 29.89 in 10.0 mi Calm Calm - N/A   Overcast
7:53 AM 41.0 °F - 33.1 °F 73% 29.91 in 10.0 mi Calm Calm - N/A   Overcast
8:53 AM 45.0 °F 39.3 °F 34.0 °F 65% 29.91 in 10.0 mi NW 11.5 mph - N/A   Scattered Clouds
9:53 AM 48.0 °F - 32.0 °F 54% 29.90 in 10.0 mi NNW 15.0 mph - N/A   Clear
10:53 AM 48.9 °F - 32.0 °F 52% 29.90 in 10.0 mi North 11.5 mph - N/A   Partly Cloudy
11:53 AM 51.1 °F - 30.9 °F 46% 29.88 in 10.0 mi NNE 4.6 mph - N/A   Clear
12:53 PM 50.0 °F - 30.9 °F 48% 29.88 in 10.0 mi Variable 3.5 mph - N/A   Overcast
1:53 PM 51.1 °F - 30.9 °F 46% 29.87 in 10.0 mi Calm Calm - N/A   Mostly Cloudy
2:53 PM 51.1 °F - 32.0 °F 48% 29.86 in 10.0 mi South 6.9 mph - N/A   Scattered Clouds
3:53 PM 53.1 °F - 32.0 °F 45% 29.84 in 10.0 mi South 9.2 mph - N/A   Clear
4:53 PM 53.1 °F - 33.1 °F 47% 29.85 in 10.0 mi South 8.1 mph 16.1 mph N/A   Mostly Cloudy
5:53 PM 52.0 °F - 34.0 °F 50% 29.87 in 10.0 mi SSE 13.8 mph - N/A   Clear
6:53 PM 48.0 °F - 35.1 °F 61% 29.87 in 10.0 mi SSE 9.2 mph - N/A   Clear
7:53 PM 45.0 °F 39.3 °F 37.0 °F 74% 29.90 in 10.0 mi SSW 11.5 mph - 0.00 in Rain Light Rain
8:53 PM 42.1 °F 40.2 °F 37.9 °F 85% 29.92 in 10.0 mi South 3.5 mph - 0.05 in Rain Light Rain
9:53 PM 39.0 °F 34.0 °F 35.1 °F 86% 29.93 in 10.0 mi SSW 6.9 mph - 0.00 in   Clear
10:53 PM 37.9 °F 31.5 °F 34.0 °F 86% 29.93 in 10.0 mi SW 9.2 mph - N/A   Clear
11:53 PM 39.0 °F 32.8 °F 34.0 °F 82% 29.94 in 10.0 mi SW 9.2 mph - N/A   Mostly Cloudy